sat.trackr.live / text

‹ back to catalog

STARLINK-30439

NORAD 57867 · 2023-144D

PAYLOAD ACTIVE UNKNOWN

§ Identity

Operator
Country
US
Launch date
2023-09-16
Launch site
AFETR
Launch vehicle
Mass (kg)
RCS (m²)

Purposes: comms

External: N2YO · Heavens-Above · Gunter

§ Orbital elements

Epoch: 2026-09-20T17:00:53.567712Z

Period
94.27 min
Inclination
43.0023°
Eccentricity
0.0001365
Mean motion
15.27583577 rev/d
Perigee alt
482.1 km
Apogee alt
484.0 km
Semi-major
6,861.2 km
B*
3.4785e-4
RAAN
263.7934°
Arg perigee
268.1760°
Mean anomaly
91.8935°
Rev number
16,747

§ Raw data

STARLINK-304391 57867U 23144D   26263.70895333  .00009323  00000+0  34785-3 0  99902 57867  43.0023 263.7934 0001365 268.1760  91.8935 15.27583577167476

JSON: /api/v1/satellites/57867 · /tle

For live sub-satellite position, see the globe view (requires WebGL).

§ Visibility from observer

Set your observer location to see the next 7 days of passes ≥ 10°. The values pass through the URL so the page stays shareable.

No JS? Fill the form by hand. The geolocation button needs JavaScript.